Year,Month,Day,Hour,Minute,Value (Times are PST for temperature in C)
2017,04,20,11,20,10.40
2017,04,20,11,21,10.30
2017,04,20,11,22,10.30
2017,04,20,11,23,10.30
2017,04,20,11,24,10.30
2017,04,20,11,25,10.20
2017,04,20,11,26,10.30
2017,04,20,11,27,10.30
2017,04,20,11,28,10.30
2017,04,20,11,29,10.30
2017,04,20,11,30,10.20
2017,04,20,11,31,10.20
2017,04,20,11,32,10.20
2017,04,20,11,33,10.20
2017,04,20,11,34,10.20
2017,04,20,11,35,10.10
2017,04,20,11,36,10.10
2017,04,20,11,37,10.20
2017,04,20,11,38,10.20
2017,04,20,11,39,10.20
2017,04,20,11,40,10.20
2017,04,20,11,41,10.10
2017,04,20,11,42,10.10
2017,04,20,11,43,10.00
2017,04,20,11,44,10.00
2017,04,20,11,45,10.00
2017,04,20,11,46,10.00
2017,04,20,11,47,10.00
2017,04,20,11,48,9.90
2017,04,20,11,49,9.90
2017,04,20,11,50,9.80
2017,04,20,11,51,9.80
2017,04,20,11,52,9.80
2017,04,20,11,53,9.80
2017,04,20,11,54,9.80
2017,04,20,11,55,9.80
2017,04,20,11,56,9.70
2017,04,20,11,57,9.70
2017,04,20,11,58,9.70
2017,04,20,11,59,9.80
2017,04,20,12,00,9.70
2017,04,20,12,01,9.80
2017,04,20,12,02,9.80
2017,04,20,12,03,9.90
2017,04,20,12,04,10.00
2017,04,20,12,05,10.20
2017,04,20,12,06,10.30
2017,04,20,12,07,10.30
2017,04,20,12,08,10.20
2017,04,20,12,09,10.10
2017,04,20,12,10,10.10
2017,04,20,12,11,10.10
2017,04,20,12,12,10.10
2017,04,20,12,13,10.10
2017,04,20,12,14,10.10
2017,04,20,12,15,10.20
2017,04,20,12,16,10.30
2017,04,20,12,17,10.40
2017,04,20,12,18,10.50
2017,04,20,12,19,10.60
2017,04,20,12,20,10.60
2017,04,20,12,21,10.70
2017,04,20,12,22,10.70
2017,04,20,12,23,10.70
2017,04,20,12,24,10.70
2017,04,20,12,25,10.70
2017,04,20,12,26,10.80
2017,04,20,12,27,10.80
2017,04,20,12,28,10.90
2017,04,20,12,29,11.10
2017,04,20,12,30,11.20
2017,04,20,12,31,11.30
2017,04,20,12,32,11.30
2017,04,20,12,33,11.30
2017,04,20,12,34,11.30
2017,04,20,12,35,11.40
2017,04,20,12,36,11.50
2017,04,20,12,37,11.50
2017,04,20,12,38,11.50
2017,04,20,12,39,11.60
2017,04,20,12,40,11.60
2017,04,20,12,41,11.60
2017,04,20,12,42,11.70
2017,04,20,12,43,11.70
2017,04,20,12,44,11.80
2017,04,20,12,45,11.80
2017,04,20,12,46,12.00
2017,04,20,12,47,12.10
2017,04,20,12,48,12.10
2017,04,20,12,49,12.10
2017,04,20,12,50,12.10
2017,04,20,12,51,12.00
2017,04,20,12,52,11.90
2017,04,20,12,53,11.80
2017,04,20,12,54,11.70
2017,04,20,12,55,11.60
2017,04,20,12,56,11.60
2017,04,20,12,57,11.60
2017,04,20,12,58,11.50
2017,04,20,12,59,11.50
2017,04,20,13,00,11.50
2017,04,20,13,01,11.60
2017,04,20,13,02,11.70
2017,04,20,13,03,11.80
2017,04,20,13,04,11.80
2017,04,20,13,05,11.80
2017,04,20,13,06,11.80
2017,04,20,13,07,11.80
2017,04,20,13,08,11.90
2017,04,20,13,09,11.80
2017,04,20,13,10,11.80
2017,04,20,13,11,11.80
2017,04,20,13,12,11.70
2017,04,20,13,13,11.70
2017,04,20,13,14,11.70
2017,04,20,13,15,11.70
2017,04,20,13,16,11.70
2017,04,20,13,17,11.60
2017,04,20,13,18,11.60
2017,04,20,13,19,11.70
2017,04,20,13,20,11.70
2017,04,20,13,21,11.80
2017,04,20,13,22,11.90
2017,04,20,13,23,12.00
2017,04,20,13,24,12.10
2017,04,20,13,25,12.10
2017,04,20,13,26,12.20
2017,04,20,13,27,12.40
2017,04,20,13,28,12.50
2017,04,20,13,29,12.70
2017,04,20,13,30,12.70
2017,04,20,13,31,12.70
2017,04,20,13,32,12.60
2017,04,20,13,33,12.60
2017,04,20,13,34,12.60
2017,04,20,13,35,12.60
2017,04,20,13,36,12.60
2017,04,20,13,37,12.70
2017,04,20,13,38,12.80
2017,04,20,13,39,12.80
2017,04,20,13,40,12.70
2017,04,20,13,41,12.70
2017,04,20,13,42,12.60
2017,04,20,13,43,12.60
2017,04,20,13,44,12.60
2017,04,20,13,45,12.70
2017,04,20,13,46,12.70
2017,04,20,13,47,12.70
2017,04,20,13,48,12.70
2017,04,20,13,49,12.70
2017,04,20,13,50,12.70
2017,04,20,13,51,12.60
2017,04,20,13,52,12.60
2017,04,20,13,53,12.60
2017,04,20,13,54,12.60
2017,04,20,13,55,12.50
2017,04,20,13,56,12.50
2017,04,20,13,57,12.50
2017,04,20,13,58,12.50
2017,04,20,13,59,12.40
2017,04,20,14,00,12.40
2017,04,20,14,01,12.40
2017,04,20,14,02,12.50
2017,04,20,14,03,12.50
2017,04,20,14,04,12.60
2017,04,20,14,05,12.60
2017,04,20,14,06,12.70
2017,04,20,14,07,12.90
2017,04,20,14,08,13.00
2017,04,20,14,09,13.10
2017,04,20,14,10,13.20
2017,04,20,14,11,13.30
2017,04,20,14,12,13.30
2017,04,20,14,13,13.40
2017,04,20,14,14,13.40
2017,04,20,14,15,13.40
2017,04,20,14,16,13.50
2017,04,20,14,17,13.60
2017,04,20,14,18,13.60
2017,04,20,14,19,13.70
2017,04,20,14,20,13.70
2017,04,20,14,21,13.70
2017,04,20,14,22,13.60
2017,04,20,14,23,13.50
2017,04,20,14,24,13.50
2017,04,20,14,25,13.60
2017,04,20,14,26,13.60
2017,04,20,14,27,13.60
2017,04,20,14,28,13.60
2017,04,20,14,29,13.50
2017,04,20,14,30,13.40
2017,04,20,14,31,13.40
2017,04,20,14,32,13.40
2017,04,20,14,33,13.40
2017,04,20,14,34,13.30
2017,04,20,14,35,13.30
2017,04,20,14,36,13.20
2017,04,20,14,37,13.10
2017,04,20,14,38,13.10
2017,04,20,14,39,13.10
2017,04,20,14,40,13.10
2017,04,20,14,41,13.00
2017,04,20,14,42,13.00
2017,04,20,14,43,13.00
2017,04,20,14,44,13.00
2017,04,20,14,45,13.10
2017,04,20,14,46,13.20
2017,04,20,14,47,13.30
2017,04,20,14,48,13.30
2017,04,20,14,49,13.30
2017,04,20,14,50,13.20
2017,04,20,14,51,13.10
2017,04,20,14,52,13.00
2017,04,20,14,53,13.00
2017,04,20,14,54,13.00
2017,04,20,14,55,13.10
2017,04,20,14,56,13.00
2017,04,20,14,57,13.00
2017,04,20,14,58,12.90
2017,04,20,14,59,12.90
2017,04,20,15,00,13.00
2017,04,20,15,01,13.10
2017,04,20,15,02,13.20
2017,04,20,15,03,13.20
2017,04,20,15,04,13.20
2017,04,20,15,05,13.30
2017,04,20,15,06,13.30
2017,04,20,15,07,13.30
2017,04,20,15,08,13.30
2017,04,20,15,09,13.30
2017,04,20,15,10,13.30
2017,04,20,15,11,13.30
2017,04,20,15,12,13.30
2017,04,20,15,13,13.30
2017,04,20,15,14,13.40
2017,04,20,15,15,13.50
2017,04,20,15,16,13.50
2017,04,20,15,17,13.40
2017,04,20,15,18,13.40
2017,04,20,15,19,13.30
2017,04,20,15,20,13.30
2017,04,20,15,21,13.30
2017,04,20,15,22,13.40
2017,04,20,15,23,13.50
2017,04,20,15,24,13.50
2017,04,20,15,25,13.40
2017,04,20,15,26,13.40
2017,04,20,15,27,13.40
2017,04,20,15,28,13.40
2017,04,20,15,29,13.40
2017,04,20,15,30,13.50
2017,04,20,15,31,13.50
2017,04,20,15,32,13.50
2017,04,20,15,33,13.50
2017,04,20,15,34,13.50
2017,04,20,15,35,13.50
2017,04,20,15,36,13.40
2017,04,20,15,37,13.40
2017,04,20,15,38,13.30
2017,04,20,15,39,13.40
2017,04,20,15,40,13.50
2017,04,20,15,41,13.60
2017,04,20,15,42,13.70
2017,04,20,15,43,13.80
2017,04,20,15,44,13.80
2017,04,20,15,45,13.80
2017,04,20,15,46,13.70
2017,04,20,15,47,13.70
2017,04,20,15,48,13.70
2017,04,20,15,49,13.80
2017,04,20,15,50,13.80
2017,04,20,15,51,13.80
2017,04,20,15,52,13.80
2017,04,20,15,53,13.80
2017,04,20,15,54,13.70
2017,04,20,15,55,13.70
2017,04,20,15,56,13.70
2017,04,20,15,57,13.70
2017,04,20,15,58,13.70
2017,04,20,15,59,13.70
2017,04,20,16,00,13.80
2017,04,20,16,01,13.80
2017,04,20,16,02,13.90
2017,04,20,16,03,14.00
2017,04,20,16,04,14.00
2017,04,20,16,05,14.00
2017,04,20,16,06,14.10
2017,04,20,16,07,14.10
2017,04,20,16,08,14.10
2017,04,20,16,09,14.20
2017,04,20,16,10,14.30
2017,04,20,16,11,14.30
2017,04,20,16,12,14.30
2017,04,20,16,13,14.30
2017,04,20,16,14,14.30
2017,04,20,16,15,14.10
2017,04,20,16,16,14.10
2017,04,20,16,17,13.90
2017,04,20,16,18,13.80
2017,04,20,16,19,13.70
2017,04,20,16,20,13.60
2017,04,20,16,21,13.60
2017,04,20,16,22,13.60
2017,04,20,16,23,13.60
2017,04,20,16,24,13.60
2017,04,20,16,25,13.50
2017,04,20,16,26,13.50
2017,04,20,16,27,13.60
2017,04,20,16,28,13.60
2017,04,20,16,29,13.60
2017,04,20,16,30,13.50
2017,04,20,16,31,13.50
2017,04,20,16,32,13.40
2017,04,20,16,33,13.40
2017,04,20,16,34,13.50
2017,04,20,16,35,13.50
2017,04,20,16,36,13.50
2017,04,20,16,37,13.60
2017,04,20,16,38,13.60
2017,04,20,16,39,13.60
2017,04,20,16,40,13.70
2017,04,20,16,41,13.70
2017,04,20,16,42,13.80
2017,04,20,16,43,13.70
2017,04,20,16,44,13.70
2017,04,20,16,45,13.70
2017,04,20,16,46,13.70
2017,04,20,16,47,13.70
2017,04,20,16,48,13.60
2017,04,20,16,49,13.50
2017,04,20,16,50,13.50
2017,04,20,16,51,13.40
2017,04,20,16,52,13.40
2017,04,20,16,53,13.30
2017,04,20,16,54,13.30
2017,04,20,16,55,13.40
2017,04,20,16,56,13.40
2017,04,20,16,57,13.40
2017,04,20,16,58,13.50
2017,04,20,16,59,13.50
2017,04,20,17,00,13.50
2017,04,20,17,01,13.60
2017,04,20,17,02,13.60
2017,04,20,17,03,13.60
2017,04,20,17,04,13.70
2017,04,20,17,05,13.80
2017,04,20,17,06,13.80
2017,04,20,17,07,13.80
2017,04,20,17,08,13.80
2017,04,20,17,09,13.90
2017,04,20,17,10,13.90
2017,04,20,17,11,14.00
2017,04,20,17,12,14.10
2017,04,20,17,13,14.10
2017,04,20,17,14,14.10
2017,04,20,17,15,14.10
2017,04,20,17,16,14.10
2017,04,20,17,17,14.10
2017,04,20,17,18,14.10
2017,04,20,17,19,14.00
2017,04,20,17,20,14.00
2017,04,20,17,21,14.00
2017,04,20,17,22,14.00
2017,04,20,17,23,13.90
2017,04,20,17,24,13.90
2017,04,20,17,25,13.90
2017,04,20,17,26,13.90
2017,04,20,17,27,14.00
2017,04,20,17,28,14.00
2017,04,20,17,29,14.10
2017,04,20,17,30,14.10
2017,04,20,17,31,14.10
2017,04,20,17,32,14.10
2017,04,20,17,33,14.00
2017,04,20,17,34,14.00
2017,04,20,17,35,13.90
2017,04,20,17,36,13.80
2017,04,20,17,37,13.80
2017,04,20,17,38,13.80
2017,04,20,17,39,13.80
2017,04,20,17,40,13.80
2017,04,20,17,41,13.80
2017,04,20,17,42,13.80
2017,04,20,17,43,13.80
2017,04,20,17,44,13.90
2017,04,20,17,45,13.90
2017,04,20,17,46,13.90
2017,04,20,17,47,13.90
2017,04,20,17,48,13.80
2017,04,20,17,49,13.70
2017,04,20,17,50,13.70
2017,04,20,17,51,13.60
2017,04,20,17,52,13.50
2017,04,20,17,53,13.50
2017,04,20,17,54,13.40
2017,04,20,17,55,13.40
2017,04,20,17,56,13.30
2017,04,20,17,57,13.30
2017,04,20,17,58,13.40
2017,04,20,17,59,13.40
2017,04,20,18,00,13.40
2017,04,20,18,01,13.40
2017,04,20,18,02,13.40
2017,04,20,18,03,13.40
2017,04,20,18,04,13.40
2017,04,20,18,05,13.30
2017,04,20,18,06,13.30
2017,04,20,18,07,13.30
2017,04,20,18,08,13.30
2017,04,20,18,09,13.30
2017,04,20,18,10,13.20
2017,04,20,18,11,13.20
2017,04,20,18,12,13.20
2017,04,20,18,13,13.20
2017,04,20,18,14,13.10
2017,04,20,18,15,13.10
2017,04,20,18,16,13.10
2017,04,20,18,17,13.10
2017,04,20,18,18,13.10
2017,04,20,18,19,13.10
2017,04,20,18,20,13.10
2017,04,20,18,21,13.10
2017,04,20,18,22,13.10
2017,04,20,18,23,13.00
2017,04,20,18,24,13.00
2017,04,20,18,25,13.00
2017,04,20,18,26,13.00
2017,04,20,18,27,13.00
2017,04,20,18,28,13.10
2017,04,20,18,29,13.00
2017,04,20,18,30,13.00
2017,04,20,18,31,12.90
2017,04,20,18,32,12.90
2017,04,20,18,33,12.90
2017,04,20,18,34,12.80
2017,04,20,18,35,12.80
2017,04,20,18,36,12.80
2017,04,20,18,37,12.70
2017,04,20,18,38,12.70
2017,04,20,18,39,12.60
2017,04,20,18,40,12.60
2017,04,20,18,41,12.60
2017,04,20,18,42,12.60
2017,04,20,18,43,12.50
2017,04,20,18,44,12.50
2017,04,20,18,45,12.40
2017,04,20,18,46,12.40
2017,04,20,18,47,12.30
2017,04,20,18,48,12.30
2017,04,20,18,49,12.20
2017,04,20,18,50,12.20
2017,04,20,18,51,12.20
2017,04,20,18,52,12.20
2017,04,20,18,53,12.10
2017,04,20,18,54,12.10
2017,04,20,18,55,12.10
2017,04,20,18,56,12.00
2017,04,20,18,57,12.00
2017,04,20,18,58,12.00
2017,04,20,18,59,12.00
2017,04,20,19,00,11.90
2017,04,20,19,01,11.90
2017,04,20,19,02,11.90
2017,04,20,19,03,11.90
2017,04,20,19,04,11.90
2017,04,20,19,05,11.90
2017,04,20,19,06,11.80
2017,04,20,19,07,11.80
2017,04,20,19,08,11.80
2017,04,20,19,09,11.80
2017,04,20,19,10,11.80
2017,04,20,19,11,11.80
2017,04,20,19,12,11.80
2017,04,20,19,13,11.70
2017,04,20,19,14,11.70
2017,04,20,19,15,11.70
2017,04,20,19,16,11.70
2017,04,20,19,17,11.70
2017,04,20,19,18,11.60
2017,04,20,19,19,11.60
2017,04,20,19,20,11.60
2017,04,20,19,21,11.60
2017,04,20,19,22,11.50
2017,04,20,19,23,11.50
2017,04,20,19,24,11.40
2017,04,20,19,25,11.40
2017,04,20,19,26,11.40
2017,04,20,19,27,11.40
2017,04,20,19,28,11.40
2017,04,20,19,29,11.30
2017,04,20,19,30,11.30
2017,04,20,19,31,11.30
2017,04,20,19,32,11.30
2017,04,20,19,33,11.30
2017,04,20,19,34,11.30
2017,04,20,19,35,11.20
2017,04,20,19,36,11.20
2017,04,20,19,37,11.20
2017,04,20,19,38,11.20
2017,04,20,19,39,11.10
2017,04,20,19,40,11.10
2017,04,20,19,41,11.10
2017,04,20,19,42,11.10
2017,04,20,19,43,11.00
2017,04,20,19,44,11.00
2017,04,20,19,45,11.00
2017,04,20,19,46,10.90
2017,04,20,19,47,10.90
2017,04,20,19,48,10.90
2017,04,20,19,49,10.80
2017,04,20,19,50,10.80
2017,04,20,19,51,10.80
2017,04,20,19,52,10.80
2017,04,20,19,53,10.70
2017,04,20,19,54,10.70
2017,04,20,19,55,10.70
2017,04,20,19,56,10.60
2017,04,20,19,57,10.60
2017,04,20,19,58,10.60
2017,04,20,19,59,10.50
2017,04,20,20,00,10.50
2017,04,20,20,01,10.50
2017,04,20,20,02,10.40
2017,04,20,20,03,10.40
2017,04,20,20,04,10.30
2017,04,20,20,05,10.30
2017,04,20,20,06,10.20
2017,04,20,20,07,10.20
2017,04,20,20,08,10.10
2017,04,20,20,09,10.10
2017,04,20,20,10,10.00
2017,04,20,20,11,10.00
2017,04,20,20,12,9.90
2017,04,20,20,13,9.90
2017,04,20,20,14,9.80
2017,04,20,20,15,9.80
2017,04,20,20,16,9.80
2017,04,20,20,17,9.70
2017,04,20,20,18,9.70
2017,04,20,20,19,9.70
2017,04,20,20,20,9.70
2017,04,20,20,21,9.60
2017,04,20,20,22,9.60
2017,04,20,20,23,9.60
2017,04,20,20,24,9.50
2017,04,20,20,25,9.50
2017,04,20,20,26,9.50
2017,04,20,20,27,9.40
2017,04,20,20,28,9.40
2017,04,20,20,29,9.40
2017,04,20,20,30,9.30
2017,04,20,20,31,9.30
2017,04,20,20,32,9.30
2017,04,20,20,33,9.20
2017,04,20,20,34,9.20
2017,04,20,20,35,9.20
2017,04,20,20,36,9.20
2017,04,20,20,37,9.10
2017,04,20,20,38,9.10
2017,04,20,20,39,9.10
2017,04,20,20,40,9.10
2017,04,20,20,41,9.10
2017,04,20,20,42,9.00
2017,04,20,20,43,9.00
2017,04,20,20,44,9.00
2017,04,20,20,45,8.90
2017,04,20,20,46,8.90
2017,04,20,20,47,8.90
2017,04,20,20,48,8.80
2017,04,20,20,49,8.80
2017,04,20,20,50,8.80
2017,04,20,20,51,8.80
2017,04,20,20,52,8.70
2017,04,20,20,53,8.70
2017,04,20,20,54,8.70
2017,04,20,20,55,8.60
2017,04,20,20,56,8.60
2017,04,20,20,57,8.60
2017,04,20,20,58,8.50
2017,04,20,20,59,8.50
2017,04,20,21,00,8.40
2017,04,20,21,01,8.40
2017,04,20,21,02,8.40
2017,04,20,21,03,8.40
2017,04,20,21,04,8.30
2017,04,20,21,05,8.30
2017,04,20,21,06,8.30
2017,04,20,21,07,8.30
2017,04,20,21,08,8.30
2017,04,20,21,09,8.20
2017,04,20,21,10,8.20
2017,04,20,21,11,8.20
2017,04,20,21,12,8.20
2017,04,20,21,13,8.20
2017,04,20,21,14,8.20
2017,04,20,21,15,8.20
2017,04,20,21,16,8.20
2017,04,20,21,17,8.20
2017,04,20,21,18,8.20
2017,04,20,21,19,8.20
2017,04,20,21,20,8.20
2017,04,20,21,21,8.10
2017,04,20,21,22,8.10
2017,04,20,21,23,8.10
2017,04,20,21,24,8.10
2017,04,20,21,25,8.10
2017,04,20,21,26,8.00
2017,04,20,21,27,8.00
2017,04,20,21,28,8.00
2017,04,20,21,29,7.90
2017,04,20,21,30,7.90
2017,04,20,21,31,7.90
2017,04,20,21,32,7.90
2017,04,20,21,33,7.90
2017,04,20,21,34,7.80
2017,04,20,21,35,7.80
2017,04,20,21,36,7.80
2017,04,20,21,37,7.80
2017,04,20,21,38,7.80
2017,04,20,21,39,7.80
2017,04,20,21,40,7.80
2017,04,20,21,41,7.80
2017,04,20,21,42,7.80
2017,04,20,21,43,7.70
2017,04,20,21,44,7.70
2017,04,20,21,45,7.70
2017,04,20,21,46,7.70
2017,04,20,21,47,7.70
2017,04,20,21,48,7.70
2017,04,20,21,49,7.70
2017,04,20,21,50,7.70
2017,04,20,21,51,7.60
2017,04,20,21,52,7.60
2017,04,20,21,53,7.60
2017,04,20,21,54,7.60
2017,04,20,21,55,7.60
2017,04,20,21,56,7.60
2017,04,20,21,57,7.50
2017,04,20,21,58,7.50
2017,04,20,21,59,7.50
2017,04,20,22,00,7.50
2017,04,20,22,01,7.40
2017,04,20,22,02,7.40
2017,04,20,22,03,7.40
2017,04,20,22,04,7.40
2017,04,20,22,05,7.40
2017,04,20,22,06,7.40
2017,04,20,22,07,7.30
2017,04,20,22,08,7.30
2017,04,20,22,09,7.30
2017,04,20,22,10,7.30
2017,04,20,22,11,7.30
2017,04,20,22,12,7.30
2017,04,20,22,13,7.30
2017,04,20,22,14,7.30
2017,04,20,22,15,7.30
2017,04,20,22,16,7.30
2017,04,20,22,17,7.20
2017,04,20,22,18,7.20
2017,04,20,22,19,7.20
2017,04,20,22,20,7.20
2017,04,20,22,21,7.20
2017,04,20,22,22,7.20
2017,04,20,22,23,7.20
2017,04,20,22,24,7.20
2017,04,20,22,25,7.20
2017,04,20,22,26,7.20
2017,04,20,22,27,7.20
2017,04,20,22,28,7.20
2017,04,20,22,29,7.20
2017,04,20,22,30,7.20
2017,04,20,22,31,7.20
2017,04,20,22,32,7.20
2017,04,20,22,33,7.20
2017,04,20,22,34,7.10
2017,04,20,22,35,7.10
2017,04,20,22,36,7.10
2017,04,20,22,37,7.10
2017,04,20,22,38,7.10
2017,04,20,22,39,7.10
2017,04,20,22,40,7.10
2017,04,20,22,41,7.10
2017,04,20,22,42,7.10
2017,04,20,22,43,7.10
2017,04,20,22,44,7.10
2017,04,20,22,45,7.10
2017,04,20,22,46,7.10
2017,04,20,22,47,7.10
2017,04,20,22,48,7.10
2017,04,20,22,49,7.10
2017,04,20,22,50,7.10
2017,04,20,22,51,7.10
2017,04,20,22,52,7.10
2017,04,20,22,53,7.10
2017,04,20,22,54,7.10
2017,04,20,22,55,7.20
2017,04,20,22,56,7.20
2017,04,20,22,57,7.20
2017,04,20,22,58,7.20
2017,04,20,22,59,7.20
2017,04,20,23,00,7.20
2017,04,20,23,01,7.20
2017,04,20,23,02,7.20
2017,04,20,23,03,7.20
2017,04,20,23,04,7.10
2017,04,20,23,05,7.10
2017,04,20,23,06,7.10
2017,04,20,23,07,7.10
2017,04,20,23,08,7.10
2017,04,20,23,09,7.10
2017,04,20,23,10,7.10
2017,04,20,23,11,7.00
2017,04,20,23,12,7.00
2017,04,20,23,13,7.00
2017,04,20,23,14,7.00
2017,04,20,23,15,7.00
2017,04,20,23,16,7.00
2017,04,20,23,17,6.90
2017,04,20,23,18,6.90
2017,04,20,23,19,6.90
2017,04,20,23,20,6.90
2017,04,20,23,21,6.90
2017,04,20,23,22,6.90
2017,04,20,23,23,6.90
2017,04,20,23,24,6.90
2017,04,20,23,25,6.90
2017,04,20,23,26,6.90
2017,04,20,23,27,6.90
2017,04,20,23,28,6.90
2017,04,20,23,29,6.90
2017,04,20,23,30,6.90
2017,04,20,23,31,6.90
2017,04,20,23,32,6.90
2017,04,20,23,33,6.90
2017,04,20,23,34,6.90
2017,04,20,23,35,6.90
2017,04,20,23,36,6.90
2017,04,20,23,37,6.90
2017,04,20,23,38,6.90
2017,04,20,23,39,6.90
2017,04,20,23,40,6.90
2017,04,20,23,41,6.90
2017,04,20,23,42,6.90
2017,04,20,23,43,6.90
2017,04,20,23,44,6.90
2017,04,20,23,45,6.80
2017,04,20,23,46,6.80
2017,04,20,23,47,6.80
2017,04,20,23,48,6.80
2017,04,20,23,49,6.80
2017,04,20,23,50,6.80
2017,04,20,23,51,6.80
2017,04,20,23,52,6.80
2017,04,20,23,53,6.80
2017,04,20,23,54,6.80
2017,04,20,23,55,6.80
2017,04,20,23,56,6.70
2017,04,20,23,57,6.70
2017,04,20,23,58,6.70
2017,04,20,23,59,6.70
